Hourly Data Report for December 06, 2019

MUSKOKA
ONTARIO
Current Station Operator: NAVCAN

44°58'29.000" N
79°18'12.000" W
281.90 m
6115529
71532
YQA

Download Data

Hourly Data (December 2019)
Hourly Data Report for December 6, 2019
TIME
LST
Temp Definition
°C
Dew Point Definition
°C
Rel Hum Definition
%
Precip. Amount Definition
mm

Wind Dir Definition
10's deg

Wind Spd Definition
km/h
Visibility Definition
km
Stn Press Definition
kPa
Hmdx Definition


Wind Chill Definition


Weather Definition


00:00 -7.4 -8.5 92 0.0   0 3.2 98.20     Snow
01:00 -7.2 -8.3 92 0.0 LegendMM 4 4.8 98.17   -9 Snow
02:00 -6.9 -8.0 92 0.0   0 2.0 98.16     Snow
03:00 -6.9 -8.0 92 0.0   0 3.6 98.12     Snow
04:00 -6.8 -7.9 92 0.0 LegendMM 4 4.0 98.07   -9 Snow
05:00 -6.8 -7.9 92 0.0 LegendMM 4 4.0 98.01   -9 Snow
06:00 -6.7 -7.8 92 0.0 LegendMM 4 3.2 97.99   -9 Snow
07:00 -6.9 -8.1 91 0.0 LegendMM 4 4.0 98.00   -9 Snow
08:00 -6.8 -7.9 92 0.0   0 4.0 98.00     Snow
09:00 -6.6 -7.8 91 0.0 LegendMM 4 4.8 98.04   -9 Snow
10:00 -6.2 -8.0 87 0.0 34 8 14.5 98.08   -10 Snow
11:00 -5.7 -8.1 83 0.0 34 11 16.1 98.14   -10 LegendNANA
12:00 -6.1 -9.3 78 0.0 32 8 16.1 98.13   -10 LegendNANA
13:00 -4.8 -9.4 70 0.0 32 15 16.1 98.16   -10 LegendNANA
14:00 -4.0 -9.1 68 0.0 31 15 16.1 98.20   -9 LegendNANA
15:00 -4.6 -10.0 66 0.0 32 17 16.1 98.28   -10 LegendNANA
16:00 -5.4 -9.7 72 0.0 32 9 16.1 98.39   -9 LegendNANA
17:00 -6.2 -9.5 78 0.0 32 4 16.1 98.49   -8 LegendNANA
18:00 -6.1 -9.0 80 0.0 4 5 16.1 98.49   -9 Snow
19:00 -8.3 -9.7 90 0.0   0 16.1 98.55     LegendNANA
20:00 -6.1 -7.6 89 0.0 21 4 2.4 98.62   -8 Snow
21:00 -6.0 -7.7 88 0.0 31 13 12.9 98.69   -11 Snow
22:00 -5.8 -7.8 86 0.0 32 13 14.5 98.75   -11 Snow
23:00 -5.6 -9.7 73 0.0 30 17 16.1 98.81   -12 Snow

Notes on Data Quality.

Legend

  • E = Estimated
  • M = Missing
  • NA = Not Available*
  • [empty] = Indicates an unobserved value
Date modified: